Overview Statistics Trail Chart Weather Telemetry Raw packets
 

This is the latest recevied weather packets stored in our database for station/object IN3MWE-10. If no packets are shown the sender has not sent any weather packets the latest 10 day(s).

<< 23 24 25 26 27 28 29 >>
Time Temp. Humidity Pressure Rain* Wind** Luminosity Snow
1788118523 24.44° C 69% 978.9 hPa - - - -
1788117622 25° C 68% 978.8 hPa - - - -
1788116722 25° C 68% 978.6 hPa - - - -
1788115822 25.56° C 65% 978.4 hPa - - - -
1788114922 25.56° C 65% 978.2 hPa - - - -
1788114022 26.11° C 65% 977.9 hPa - - - -
1788113122 26.11° C 63% 977.6 hPa - - - -
1788112221 26.67° C 66% 977.4 hPa - - - -
1788111321 27.22° C 63% 977.2 hPa - - - -
1788110421 28.33° C 52% 977 hPa - - - -
1788109521 28.89° C 48% 976.8 hPa - - - -
1788108621 29.44° C 45% 976.7 hPa - - - -
1788107721 30° C 41% 976.6 hPa - - - -
1788106821 30.56° C 39% 976.5 hPa - - - -
1788105921 32.78° C 33% 976.4 hPa - - - -
1788105020 34.44° C 29% 976.4 hPa - - - -
1788104120 36.11° C 27% 976.3 hPa - - - -
1788103220 35.56° C 28% 976.5 hPa - - - -
1788102320 36.67° C 25% 976.4 hPa - - - -
1788101420 36.11° C 25% 976.4 hPa - - - -
1788100520 38.33° C 24% 976.4 hPa - - - -
1788099620 37.78° C 23% 976.6 hPa - - - -
1788098719 37.78° C 23% 976.8 hPa - - - -
1788097819 40° C 23% 977 hPa - - - -
1788096919 40.56° C 24% 977.1 hPa - - - -

* Rain since midnight (hover to see other rain measurements)
** Current wind speed in m/s (hover to see current wind gust speed)